Regional Weather Roundup
Issued by NWS Mt. Holly, NJ

Current Version | Previous Version | Text Only | Print | Product List | Glossary On
Versions: 1 2 3 4 5 6 7 8 9 10 11 12 13 14 15 16 17 18 19 20 21 22 23 24 25 26 27 28 29 30 31 32 33 34 35 36 37 38 39 40 41 42 43 44 45 46 47 48 49 50
000
ASUS41 KPHI 281612
RWRPHI

REGIONAL WEATHER ROUNDUP
NATIONAL WEATHER SERVICE MOUNT HOLLY NJ
1200 PM EDT WED SEP 28 2016

NOTE:  "FAIR" INDICATES FEW OR NO CLOUDS BELOW 12,000 FEET WITH NO
SIGNIFICANT WEATHER AND/OR OBSTRUCTIONS TO VISIBILITY.

 * = STATION DOES NOT REPORT PRECIPITATION (E.G. RAIN, SNOW, ETC.)
        OR FOG.

NJZ015>026-281700-
SOUTHERN NEW JERSEY

CITY           SKY/WX    TMP DP  RH WIND       PRES   REMARKS
POMONA         CLOUDY    71  63  75 E14       30.06R
WILDWOOD*        N/A     71  64  78 VRB7      30.08R
MILLVILLE      LGT RAIN  70  65  84 E5        30.07R
WRIGHTSTOWN    PTSUNNY   70  61  73 NE9       30.05S
MOUNT HOLLY    CLOUDY    69  60  73 VRB3      30.06S
TRENTON        CLOUDY    68  59  73 E9        30.09S

$$
NJZ001>014-281700-
NORTHERN NEW JERSEY

CITY           SKY/WX    TMP DP  RH WIND       PRES   REMARKS
SUSSEX         CLOUDY    60  57  89 VRB5      30.14S
ANDOVER*         N/A     62  57  83 VRB3      30.13R
NEWARK         CLOUDY    70  58  65 NE12      30.10S
TETERBORO      CLOUDY    68  56  65 E13       30.11R
CALDWELL       PTSUNNY   67  57  70 E13G20    30.12S
SOMERVILLE     CLOUDY    68  59  73 VRB5      30.09R
ALLAIRE*       CLOUDY    68  62  81 E18       30.10R
TOMS RIVER*    CLOUDY    71  63  75 E14G24    30.08S

$$
PAZ043-044-047-054-055-060>062-066>071-281700-
EASTERN PENNSYLVANIA

CITY           SKY/WX    TMP DP  RH WIND       PRES   REMARKS
PHILADELPHIA   RAIN      67  63  87 NE12      30.07S FOG
NORTH PHILA    LGT RAIN  69  63  81 E13       30.08S
BLUE BELL*     CLOUDY    64  61  88 E8G17     30.06F
DOYLESTOWN     CLOUDY    69  61  75 CALM      30.08S
QUAKERTOWN*    CLOUDY    66  59  77 E15       30.09S
PERKASIE*      FAIR      66  59  77 E8G16     30.10S
POTTSTOWN      PTSUNNY   67  59  75 E10G22    30.08S
LANCASTER      CLOUDY    69  58  67 E14G22    30.06R
COATESVILLE    CLOUDY    64  59  82 E13       30.08R
READING        MOSUNNY   69  55  60 E8        30.05F
ALLENTOWN      CLOUDY    68  56  65 E8        30.10R
MOUNT POCONO   CLOUDY    55  52  89 E14G23    30.14R
HAZLETON       PTSUNNY   66  52  59 E15G26    30.12S
LEHIGHTON        N/A     66  54  63 NE9       30.10S
WILKES BARRE   MOSUNNY   69  53  56 E14G24    30.09R

$$
DEZALL-MDZ008-012-015-019-020-281700-
DELAWARE AND EASTERN MARYLAND

CITY           SKY/WX    TMP DP  RH WIND       PRES   REMARKS
WILMINGTON     CLOUDY    66  62  87 E12       30.06R
DOVER          LGT RAIN  66  66 100 E21       30.01F FOG
GEORGETOWN     LGT RAIN  69  66  90 NE8       30.06R
EASTON         PTSUNNY   68  64  88 SE13G20   30.02F
ABERDEEN       LGT RAIN  66  61  82 E7        30.03F
PATUXENT       LGT RAIN  68  65  90 E13       29.99S FOG
OCEAN CITY     CLOUDY    73  67  81 NE9       30.03R
WALLOPS ISLAND PTSUNNY   76  69  79 E12       30.01S
CAMBRIDGE      PTSUNNY   64  64 100 E9G17     30.00F
SALISBURY      CLOUDY    72  66  81 NE15      30.02R

$$
PAZ001-021-NYZ056-072-MDZ011-DCZ001-281700-
OTHER NEARBY LOCATIONS

CITY           SKY/WX    TMP DP  RH WIND       PRES   REMARKS
HARRISBURG     MOSUNNY   73  51  46 SE14G21   30.04F
STATE COLLEGE  PTSUNNY   66  50  55 E9        30.05F
WILLIAMSPORT   PTSUNNY   70  51  51 E12       30.05F
BINGHAMTON     SUNNY     66  49  54 SE12      30.11R
NEW YORK CITY  CLOUDY    67  58  72 E10G26    30.15R
BALTIMORE      CLOUDY    66  63  90 E10       30.03R
WASHINGTON DC  CLOUDY    68  65  90 NE12      30.01S

$$



USA.gov is the U.S. government's official web portal to all federal, state and local government web resources and services.